Weather History for Lakeville, MN

Change the Weather History Date:

Sunday, May 12, 2013

  Actual Average Record
Temperature  
Mean Temperature 42 °F -  
Max Temperature 55 °F 69 °F 88 °F (1961)
Min Temperature 30 °F 45 °F 30 °F (1971)
Degree Days  
Heating Degree Days 22    
Moisture  
Dew Point 23 °F    
Average Humidity 48    
Maximum Humidity 80    
Minimum Humidity 23    
Precipitation  
Precipitation 0.00 in - - ()
Sea Level Pressure  
Sea Level Pressure 30.16 in    
Wind  
Wind Speed 8 mph (NW)    
Max Wind Speed 17 mph    
Max Gust Speed 24 mph    
Visibility 10 miles    
Events      
Averages and records for this station are not official NWS values.
T = Trace of Precipitation, MM = Missing Value Source: NWS Daily Summary

Daily Weather History Graph

Daily Weather History Graph

Search for Another Location

Airport:

Trip Planner

Search our weather history database for the weather conditions in past years. The results will help you decide how hot, cold, wet, or windy it might be!

Date:

Astronomy

May. 12, 2013 Rise Set
Actual Time 5:48 AM CDT 8:31 PM CDT
Civil Twilight 5:14 AM CDT 9:04 PM CDT
Nautical Twilight 4:32 AM CDT 9:47 PM CDT
Astronomical Twilight 3:43 AM CDT 10:36 PM CDT
Moon 7:42 AM CDT (5/12) 10:59 PM CDT (5/12)
Length of Visible Light 15h 50m
Length of Day
14h 42m
Waxing Crescent, 7% of the Moon is Illuminated
May 12
Waxing Crescent
May 17
First Quarter
May 24
Full
May 31
Last Quarter
Jun 8
New

Hourly Weather History & Observations

Time (CDT) Temp. Windchill Dew Point Humidity Pressure Visibility Wind Dir Wind Speed Gust Speed Precip Events Conditions
12:14 AM 37.4 °F 32.8 °F 21.2 °F 52% 30.18 in 10.0 mi NNW 5.8 mph - N/A   Clear
12:33 AM 35.6 °F 31.7 °F 23.0 °F 60% 30.18 in 10.0 mi NW 4.6 mph - N/A   Clear
12:54 AM 33.8 °F 27.7 °F 23.0 °F 65% 30.18 in 10.0 mi NW 6.9 mph - N/A   Clear
1:14 AM 33.8 °F 28.6 °F 23.0 °F 65% 30.19 in 10.0 mi NW 5.8 mph - N/A   Clear
1:33 AM 33.8 °F 28.6 °F 23.0 °F 65% 30.19 in 10.0 mi NW 5.8 mph - N/A   Clear
1:54 AM 32.0 °F 25.6 °F 23.0 °F 69% 30.19 in 10.0 mi NW 6.9 mph - N/A   Clear
2:14 AM 32.0 °F 26.4 °F 23.0 °F 69% 30.19 in 10.0 mi NW 5.8 mph - N/A   Clear
2:33 AM 33.8 °F 28.6 °F 24.8 °F 70% 30.19 in 10.0 mi WNW 5.8 mph - N/A   Clear
2:54 AM 33.8 °F 27.7 °F 24.8 °F 70% 30.19 in 10.0 mi WNW 6.9 mph - N/A   Clear
3:14 AM 32.0 °F 27.5 °F 24.8 °F 75% 30.19 in 10.0 mi WNW 4.6 mph - N/A   Clear
3:33 AM 32.0 °F 26.4 °F 24.8 °F 75% 30.19 in 10.0 mi West 5.8 mph - N/A   Clear
3:54 AM 32.0 °F 25.6 °F 24.8 °F 75% 30.19 in 10.0 mi West 6.9 mph - N/A   Clear
4:33 AM 30.2 °F 25.4 °F 24.8 °F 80% 30.18 in 10.0 mi WNW 4.6 mph - N/A   Clear
4:54 AM 30.2 °F 24.3 °F 24.8 °F 80% 30.18 in 10.0 mi WNW 5.8 mph - N/A   Clear
5:13 AM 32.0 °F 25.6 °F 24.8 °F 75% 30.19 in 10.0 mi West 6.9 mph - N/A   Clear
5:33 AM 32.0 °F 26.4 °F 24.8 °F 75% 30.19 in 10.0 mi West 5.8 mph - N/A   Clear
5:54 AM 30.2 °F 24.3 °F 24.8 °F 80% 30.20 in 10.0 mi West 5.8 mph - N/A   Clear
6:13 AM 30.2 °F 24.3 °F 24.8 °F 80% 30.20 in 10.0 mi WNW 5.8 mph - N/A   Clear
6:33 AM 32.0 °F 25.6 °F 24.8 °F 75% 30.20 in 10.0 mi West 6.9 mph - N/A   Clear
6:54 AM 33.8 °F 29.6 °F 26.6 °F 75% 30.21 in 10.0 mi West 4.6 mph - N/A   Clear
7:13 AM 35.6 °F 29.9 °F 26.6 °F 70% 30.21 in 10.0 mi WNW 6.9 mph - N/A   Clear
7:33 AM 37.4 °F 32.1 °F 26.6 °F 65% 30.21 in 10.0 mi NW 6.9 mph - N/A   Clear
7:54 AM 39.2 °F 33.0 °F 24.8 °F 56% 30.21 in 10.0 mi NNW 9.2 mph - N/A   Clear
8:13 AM 39.2 °F 33.6 °F 24.8 °F 56% 30.22 in 10.0 mi NNW 8.1 mph - N/A   Clear
8:34 AM 41.0 °F 34.7 °F 23.0 °F 49% 30.22 in 10.0 mi NNW 10.4 mph - N/A   Clear
8:54 AM 42.8 °F 36.6 °F 23.0 °F 46% 30.22 in 10.0 mi North 11.5 mph 16.1 mph N/A   Clear
9:13 AM 42.8 °F 36.2 °F 21.2 °F 42% 30.22 in 10.0 mi North 12.7 mph - N/A   Clear
9:34 AM 42.8 °F 35.1 °F 21.2 °F 42% 30.21 in 10.0 mi NNW 16.1 mph 23.0 mph N/A   Clear
9:54 AM 44.6 °F 38.1 °F 21.2 °F 39% 30.21 in 10.0 mi NNW 13.8 mph - N/A   Clear
10:13 AM 44.6 °F 41.4 °F 21.2 °F 39% 30.21 in 10.0 mi NW 5.8 mph 9.2 mph N/A   Clear
10:34 AM 44.6 °F 38.1 °F 21.2 °F 39% 30.20 in 10.0 mi NW 13.8 mph 21.9 mph N/A   Clear
10:53 AM 46.4 °F 40.7 °F 21.2 °F 37% 30.20 in 10.0 mi WNW 12.7 mph 19.6 mph N/A   Clear
11:13 AM 46.4 °F 40.4 °F 23.0 °F 40% 30.20 in 10.0 mi NNW 13.8 mph 18.4 mph N/A   Clear
11:34 AM 46.4 °F 40.7 °F 21.2 °F 37% 30.20 in 10.0 mi WNW 12.7 mph 18.4 mph N/A   Clear
11:53 AM 48.2 °F - 23.0 °F 37% 30.19 in 10.0 mi NW 11.5 mph 16.1 mph N/A   Clear
12:13 PM 48.2 °F - 21.2 °F 34% 30.19 in 10.0 mi WNW 8.1 mph 19.6 mph N/A   Clear
12:34 PM 50.0 °F - 23.0 °F 35% 30.18 in 10.0 mi West 11.5 mph 18.4 mph N/A   Clear
12:53 PM 48.2 °F - 21.2 °F 34% 30.17 in 10.0 mi NNW 12.7 mph 19.6 mph N/A   Clear
1:14 PM 51.8 °F - 21.2 °F 30% 30.17 in 10.0 mi NW 12.7 mph 20.7 mph N/A   Scattered Clouds
1:34 PM 51.8 °F - 21.2 °F 30% 30.16 in 10.0 mi WNW 11.5 mph 19.6 mph N/A   Scattered Clouds
1:53 PM 51.8 °F - 23.0 °F 33% 30.16 in 10.0 mi WNW 15.0 mph 18.4 mph N/A   Clear
2:14 PM 51.8 °F - 19.4 °F 28% 30.15 in 10.0 mi WNW 12.7 mph 20.7 mph N/A   Clear
2:33 PM 53.6 °F - 19.4 °F 26% 30.15 in 10.0 mi NW 9.2 mph 19.6 mph N/A   Clear
2:53 PM 53.6 °F - 19.4 °F 26% 30.14 in 10.0 mi WNW 17.3 mph - N/A   Clear
3:14 PM 53.6 °F - 19.4 °F 26% 30.13 in 10.0 mi NNW 12.7 mph 18.4 mph N/A   Clear
3:33 PM 55.4 °F - 19.4 °F 25% 30.13 in 10.0 mi NNW 10.4 mph - N/A   Clear
3:53 PM 53.6 °F - 19.4 °F 26% 30.12 in 10.0 mi NW 4.6 mph 12.7 mph N/A   Clear
4:14 PM 55.4 °F - 19.4 °F 25% 30.12 in 10.0 mi North 10.4 mph - N/A   Clear
4:33 PM 55.4 °F - 21.2 °F 26% 30.11 in 10.0 mi WNW 13.8 mph 24.2 mph N/A   Clear
4:53 PM 55.4 °F - 19.4 °F 25% 30.11 in 10.0 mi WNW 16.1 mph 19.6 mph N/A   Clear
5:14 PM 55.4 °F - 19.4 °F 25% 30.11 in 10.0 mi NW 13.8 mph 23.0 mph N/A   Clear
5:33 PM 55.4 °F - 19.4 °F 25% 30.11 in 10.0 mi NNW 12.7 mph 18.4 mph N/A   Clear
5:53 PM 55.4 °F - 17.6 °F 23% 30.10 in 10.0 mi NW 15.0 mph 19.6 mph N/A   Clear
6:14 PM 55.4 °F - 17.6 °F 23% 30.10 in 10.0 mi NNW 16.1 mph 19.6 mph N/A   Clear
6:33 PM 55.4 °F - 19.4 °F 25% 30.10 in 10.0 mi NW 10.4 mph - N/A   Clear
6:54 PM 55.4 °F - 19.4 °F 25% 30.09 in 10.0 mi WNW 8.1 mph - N/A   Clear
7:13 PM 53.6 °F - 17.6 °F 24% 30.09 in 10.0 mi NNW 10.4 mph - N/A   Clear
7:33 PM 53.6 °F - 17.6 °F 24% 30.09 in 10.0 mi NW 10.4 mph - N/A   Clear
7:54 PM 51.8 °F - 21.2 °F 30% 30.09 in 10.0 mi NW 5.8 mph - N/A   Clear
8:13 PM 51.8 °F - 19.4 °F 28% 30.09 in 10.0 mi NW 9.2 mph - N/A   Clear
8:33 PM 46.4 °F 45.2 °F 21.2 °F 37% 30.10 in 10.0 mi NW 3.5 mph - N/A   Clear
8:54 PM 48.2 °F - 19.4 °F 32% 30.10 in 10.0 mi Calm Calm - N/A   Clear
9:13 PM 48.2 °F - 19.4 °F 32% 30.10 in 10.0 mi Calm Calm - N/A   Clear
9:33 PM 42.8 °F - 23.0 °F 46% 30.10 in 10.0 mi Calm Calm - N/A   Clear
9:54 PM 39.2 °F - 28.4 °F 65% 30.11 in 10.0 mi Calm Calm - N/A   Clear
10:13 PM 39.2 °F - 28.4 °F 65% 30.11 in 7.0 mi Calm Calm - N/A   Clear
10:33 PM 37.4 °F - 28.4 °F 70% 30.11 in 10.0 mi Calm Calm - N/A   Clear
10:54 PM 37.4 °F - 30.2 °F 75% 30.11 in 10.0 mi Calm Calm - N/A   Clear
11:13 PM 37.4 °F - 30.2 °F 75% 30.10 in 10.0 mi Calm Calm - N/A   Clear
11:33 PM 37.4 °F - 26.6 °F 65% 30.11 in 10.0 mi Calm Calm - N/A   Clear
11:54 PM 35.6 °F - 26.6 °F 70% 30.11 in 10.0 mi Calm Calm - N/A   Clear